2023-003B (55134 NORAD) Tracking and Keplerian Element Data

This shows tracking and keplerian element data for the satellite.

Feedback or suggestion? Click here.




ElementValue
Catalog55134
Name2023-003B
Epoch Orbit74
Epoch Day14.2039195
Epoch Year2023
RAAN104.1207
Inclination97.2714
Eccentricity0.0011935
Argument of Perigee274.6358
Mean Anonmoly169.0722
Mean Motion15.20996934
Decay Rate9.188E-05
L11 55134U 23003B 23014.20391950 .00009188 00000+0 41648-3 0 9996
L22 55134 97.2714 104.1207 0011935 274.6358 169.0722 15.20996934 745



Live tracking and technical data element details for 2023-003B (NORAD 55134). 2023-003B can be tracked NOW for your location showing map with azimuth and elevation plus other details from your city location.







IsCatalogInMostPopularTable: catalog: 55134, numindb: 3
Update: records affected: 1



GetName: 55134 2023-003B

Hit Count: updated at: Tue, 07 Feb 2023 15:32:38 GMT